Regional Weather Roundup
Issued by NWS Green Bay, WI

Home | Current Version | Previous Version | Text Only | Print | Product List | Glossary On
Versions: 1 2 3 4 5 6 7 8 9 10 11 12 13 14 15 16 17 18 19 20 21 22 23 24 25 26 27 28 29 30 31 32 33 34 35 36 37 38 39 40 41 42 43 44 45 46 47 48 49 50
000
ASUS43 KGRB 020411
RWRGRB

NORTH-CENTRAL AND NORTHEAST WISCONSIN REGIONAL WEATHER ROUNDUP
NATIONAL WEATHER SERVICE GREEN BAY WI
1100 PM CDT SUN MAY 01 2016

WIZ005-009-010>012-018-019-020500-
NORTH CENTRAL WISCONSIN

CITY           SKY/WX    TMP DP  RH WIND       PRES   REMARKS
IRONWOOD         N/A     36  34  93 CALM      30.12F
MANITOWISH WTR CLEAR     40  33  74 NE5       30.13S
ARBOR VITAE    CLEAR     45  34  65 NE6       30.12F
EAGLE RIVER    CLEAR     38  31  74 CALM      30.12F
LAND O LAKES   CLEAR     41  31  66 CALM      30.14F
RHINELANDER    PTCLDY    47  30  51 N5        30.12S
PHILLIPS       CLEAR     43  34  72 N7        30.11F
ANTIGO         CLEAR     40  34  78 CALM      30.10F
TOMAHAWK       CLEAR     45  33  62 CALM      30.11F
MERRILL        NOT AVBL
$$

WIZ013-073-020500-
NORTHEAST WISCONSIN

CITY           SKY/WX    TMP DP  RH WIND       PRES   REMARKS
IRON MOUNTAIN  CLEAR     44  28  53 CALM      30.12S
MARINETTE      CLEAR     45  32  61 NE6       30.10F
OCONTO         CLEAR     38  38 100 CALM      30.10S
$$

WIZ017-030-035>037-045-020500-
CENTRAL WISCONSIN

CITY           SKY/WX    TMP DP  RH WIND       PRES   REMARKS
MEDFORD        CLEAR     44  36  71 E3        30.09F
WAUSAU         PTCLDY    49  33  54 CALM      30.08F
MOSINEE        PTCLDY    43  32  65 E3        30.10F
MARSHFIELD     PTCLDY    47  34  60 E6        30.08F
WISC RAPIDS    CLEAR     39  32  76 N5        30.10F
STEVENS POINT  MOCLDY    38  32  79 CALM      30.10S
WAUPACA        CLEAR     47  38  72 N3        30.10S
SHAWANO        CLEAR     48  38  70 CALM      30.11S
CLINTONVILLE   CLEAR     45  36  70 CALM      30.10S
WAUTOMA        CLEAR     46  38  73 NE5       30.09S
$$

WIZ038-039-048-051-020500-
FOX VALLEY

CITY           SKY/WX    TMP DP  RH WIND       PRES   REMARKS
NWS GREEN BAY  CLEAR     44  39  82 N8        30.09S
APPLETON       PTCLDY    45  36  70 NE6       30.08R
OSHKOSH        CLOUDY    49  40  71 NE7       30.08S
FOND DU LAC    CLOUDY    49  39  68 NE9       30.07F
$$

WIZ022-050-052-020500-
EAST CENTRAL WISCONSIN

CITY           SKY/WX    TMP DP  RH WIND       PRES   REMARKS
EPHRAIM        FAIR      43  35  73 N8        30.09F
STURGEON BAY   CLEAR     43  34  70 N9        30.12S
MANITOWOC      CLOUDY    47  36  65 N8        30.08S
SHEBOYGAN      CLOUDY    47  37  68 NE8       30.07S
$$

LMZ563-521-522-541>543-020500-
LAKESHORE

STATION/POSITION TIME  TEMP    WIND        PRES    VSBY  WAVE
                       AIR SEA DIR/SP/G                  HT/PER
                 (UTC) (F)     (DEG/KT/KT) (MB)    (MI)  (FT/S)
SHEBOYGAN LKSHOR 0400   43      10/  9/ 10 1018.8F
KEWAUNEE LKSHORE 0300   48                 1017.9F
NORTHPORT PIER   0300   43     300/  6/  7 1019.6S
N MID LAKE BUOY  0350   42 38  340/ 10/ 12 1019.1F         0
CHAMBERS ISLAND  0300   43      20/  3/  4 1020.0R
MENOMINEE LKSHOR 0300   46                 1018.4F
$$




USA.gov is the U.S. government's official web portal to all federal, state and local government web resources and services.